www.pogodaiklimat.ru

Погода и климат >> Архив погоды >> Китай >> Хэбэй >> Чэндэ


ПОГОДА в Чэндэ

  • Прогноз погоды в Чэндэ
  • Монитор погоды в Чэндэ

АРХИВ ПОГОДЫ в Чэндэ

Время (UTC), дата Ветер
(напр.,м/с)
 
Видим.   Явления Облачность Т
(С)
Тd
(С)
f
(%)
Тe
(С)
Тes
(С)
Комфортность P
(гПа)
Po
(гПа)
Тmin
(С)
Tmax
(С)
R
(мм)
R24
(мм)
S
(см)
21 11.09 Ю 1 11 км н/о +14.0 +13.2 95 +14 +14 1018.5 972.8
00 12.09 штиль 0 19 км 10/10 1000 м
[]
+15.1 +13.3 89 +15 +15 1017.8 968.6 0.6
03 12.09 штиль 0 24 км 10/10 1000 м
[]
+18.0 +11.6 66 +18 +18 1017.8 972.7
06 12.09 С 1 30 км 8/8 600 м
[]
+21.5 +10.9 51 +23 +26 комфорт 1014.7 965.7 +13.7
09 12.09 штиль 0 30 км 6/6 600 м
[]
+22.8 +11.5 49 +25 +26 комфорт 1012.2 968.1
12 12.09 З 2 25 км 10/10 1000 м
[]
+19.3 +12.3 64 +21 +21 комфорт 1013.4 964.3
15 12.09 З 2 16 км н/о +18.3 +12.5 69 +19 +19 1011.7 966.9
18 12.09 З 1 1900 м дымка ?/? +16.0 +15.0 94 +17 +17 1010.5 961.8 +23.1 3
21 12.09 З 1 1900 м дымка н/о +15.1 +15.1 100 +16 +16 1010.7 965.5
00 13.09 Ю 1 2500 м в посл. час дождь 9/9 1000 м
[]
+16.0 +16.0 100 +17 +17 1011.1 962.2 12
03 13.09 З 3 24 км 8/8 600 м
[]
+21.0 +16.0 73 +25 +27 комфорт 1011.2 966.9
06 13.09 С 4 30 км 8/8 600 м
[]
+23.4 +9.0 40 +25 +26 комфорт 1011.0 962.4 +15.0
09 13.09 С 2 30 км 9/9 1000 м
[]
+22.8 +7.4 37 +24 +24 комфорт 1012.2 968.1
12 13.09 С 2 30 км 5/5 1000 м
[]
+18.8 +9.8 56 +20 +20 1014.3 965.2
15 13.09 В 1 25 км н/о +15.9 +12.1 78 +17 +17 1015.7 970.4
18 13.09 штиль 0 19 км н/о +13.8 +12.2 90 +13 +13 1016.5 967.5 +24.5
21 13.09 С 1 24 км н/о +11.6 +10.8 95 +11 +11 1017.9 971.8
00 14.09 В 2 26 км 3/3
[]
+14.9 +10.9 77 +15 +17 1019.4 969.9
03 14.09 Ю 1 30 км 3/3
[]
+22.4 +10.2 46 +24 +34 комфорт 1017.9 973.5
06 14.09 З 3 30 км 5/5 600 м
[]
+27.0 +4.1 23 +26 +30 жарко 1015.2 966.5 +11.2
09 14.09 ЮЗ 1 30 км 8/8
[]
+25.4 +5.1 27 +25 +25 комфорт 1014.3 970.5
12 14.09 штиль 0 24 км 9/9
[]
+19.7 +7.8 46 +20 +20 1015.7 966.5
15 14.09 В 1 22 км 3/3
[]
+15.1 +9.5 69 +16 +16 1015.7 970.3
18 14.09 С 1 25 км ясно +13.1 +9.9 81 +13 +13 1015.2 966.5 +27.3
21 14.09 С 1 25 км ясно +10.8 +9.9 94 +10 +10 1015.0 968.9
00 15.09 штиль 0 23 км 5/5 1000 м
[]
+13.3 +10.3 82 +13 +15 1015.2 965.9
03 15.09 ЮВ 1 26 км 9/9 1000 м
[]
+22.6 +12.0 51 +25 +26 комфорт 1013.3 969.1
06 15.09 Ю 2 20 км 9/9 1000 м
[]
+26.0 +12.1 42 +27 +28 жарко 1011.0 962.4 +10.2
09 15.09 С 2 30 км 9/9 600 м
[]
+25.8 +9.2 35 +26 +26 жарко 1011.2 967.5
12 15.09 С 1 17 км 6/6
[]
+19.9 +11.9 60 +23 +23 комфорт 1013.5 964.3
15 15.09 В 1 18 км 3/3
[]
+15.8 +11.4 75 +17 +17 1015.2 969.9
18 15.09 С 2 22 км н/о +13.0 +11.7 92 +12 +12 1016.9 968.0 +27.6
21 15.09 С 1 17 км н/о +10.9 +10.1 95 +10 +10 1018.6 972.4
00 16.09 С 1 20 км ясно +13.3 +9.4 77 +14 +17 1020.7 971.1
03 16.09 Ю 1 30 км ясно +20.1 +5.4 38 +22 +36 комфорт 1019.7 974.8
06 16.09 Ю 2 30 км ясно +25.2 +5.9 29 +25 +35 комфорт 1016.6 967.6 +10.2
09 16.09 З 2 30 км ясно +25.4 +2.2 22 +24 +25 комфорт 1015.6 971.7
12 16.09 З 2 30 км ясно +20.1 +8.1 46 +22 +22 комфорт 1017.1 967.7
15 16.09 штиль 0 22 км н/о +15.6 +10.6 72 +15 +15 1017.6 972.2
18 16.09 С 1 20 км н/о +12.8 +10.5 86 +13 +13 1017.7 968.7 +26.1
21 16.09 С 1 18 км н/о +10.2 +9.6 96 +10 +10 1018.1 971.8
00 17.09 штиль 0 17 км 5/5
[]
+12.5 +9.7 83 +12 +14 1018.3 968.8
03 17.09 Ю 2 20 км 5/5
[]
+23.1 +11.2 47 +25 +31 комфорт 1016.9 972.6
06 17.09 З 2 21 км 3/3 600 м
[]
+27.3 +9.2 32 +27 +34 жарко 1013.9 965.2 +9.9
09 17.09 З 3 30 км 3/3 600 м
[]
+26.9 +9.3 33 +27 +28 жарко 1014.8 971.2
12 17.09 СЗ 4 30 км ясно +21.9 -1.4 21 +21 +21 комфорт 1018.7 969.3
15 17.09 С 2 30 км н/о +18.8 +1.3 31 +20 +20 1021.7 976.6
18 17.09 С 2 30 км н/о +13.6 +2.2 46 +13 +13 1024.3 975.2 +27.9
21 17.09 СВ 1 30 км н/о +9.4 +3.6 67 +9 +9 1026.4 979.6
00 18.09 В 1 24 км ясно +12.2 +1.8 49 +13 +16 1029.0 979.1
03 18.09 ЮВ 1 30 км ясно +19.8 -3.8 20 +21 +34 комфорт 1027.4 982.2
06 18.09 СЗ 4 30 км ясно +22.6 -2.2 19 +21 +28 комфорт 1024.5 975.0 +8.4
09 18.09 Ю 2 30 км ясно +23.3 -1.6 19 +22 +23 комфорт 1022.8 978.3
12 18.09 Ю 1 27 км ясно +17.7 +0.4 31 +19 +19 1023.5 973.5
15 18.09 ЮВ 1 23 км н/о +14.2 +4.5 52 +15 +15 1023.4 977.5
18 18.09 С 1 26 км н/о +11.1 +5.0 66 +11 +11 1023.6 973.9 +24.1

 

Местоположение метеостанции Чэндэ (Хэбэй, Китай): широта 40.98 долгота 117.95 высота над уровнем моря 386 м.

В архиве по умолчанию представлена погода в Чэндэ за последнюю неделю. Архивные данные за месяц целиком и за предыдущие месяцы, начиная с января 2011 года, Вы можете получить, выбрав интересующий диапазон дат из раскрывающегося списка и нажав кнопку "Ввод!".


*Определитесь, кто Вы:
робот инопланетянин человек

Внимание! Время в таблицах - всемирное. Для получения местного времени необходимо прибавить поправку, которая равна 8 ч.

Смотрите также архив погоды в соседних городах и на ближайших метеорологических станциях:

Погода в Цинлуне (Хэбэй, Китай) (106 км)
Погода в Вэйчане (Хэбэй, Китай) (107 км)
Погода в Фэннине (Хэбэй, Китай) (114 км)
Погода в Таншане (Хэбэй, Китай) (147 км)
Погода в Чифэне (Внутренняя Монголия, Китай) (166 км)
Погода в Долуне (Внутренняя Монголия, Китай) (182 км)
Погода в Пекине (город Пекин, Китай) (183 км)
Погода в Лаотине (Хэбэй, Китай) (190 км)
Погода в Хуайлае (Хэбэй, Китай) (216 км)
Погода в Чаояне (Ляонин, Китай) (218 км)

Пояснения к столбцам:

Ветер - указаны скорость ветра в м/с - средняя за 10 мин, порывы в срок и между сроками (в фигурных скобках) и направление, откуда дует ветер: С - северный, СВ - северо-восточный, В - восточный, ЮВ - юго-восточный, Ю - южный, ЮЗ - юго-западный, З - западный, СЗ - северо-западный.
Видимость - горизонтальная дальность видимости в метрах или километрах. При видимости от 1 до 10 км при отсутствии осадков обычно наблюдается дымка, при ухудшении видимости до 1 км и менее - туман. В сухую погоду видимость может ухудшаться дымом, пылью или мглою.
Явления - указаны атмосферные явления, наблюдавшиеся в срок или в последний час перед сроком; фигурными скобками обозначены явления, наблюдавшиеся между сроками (за 1-3 часа до срока); квадратными скобками обозначены град или гололедные отложения с указанием их диаметра в мм.
Облачность - указаны через наклонную черту общая и нижняя облачность в баллах и высота нижней границы облаков в метрах; квадратными скобками обозначены формы облаков: Ci - перистые, Cs - перисто-слоистые, Cc - перисто-кучевые, Ac - высококучевые, As - высокослоистые, Sc - слоисто-кучевые, Ns - слоисто-дождевые, Cu - кучевые, Cb - кучево-дождевые. Подробнее классификацию облаков см. в Атласе облаков (PDF).
T - Температура воздуха - температура, измеренная на высоте 2 м над землей.
Td - Температура точки росы - температура, при понижении до которой содержащийся в воздухе водяной пар достигнет насыщения.
f - Относительная влажность воздуха - влажноcть воздуха, измеренная на высоте 2 м над землей.
Te - Эффективная температура - температура, которую ощущает одетый по сезону человек в тени. Характеристика душности погоды. При расчете учитывается влияние влажности воздуха и скорости ветра на теплоощущения человека.
Tes - Эффективная температура на солнце - температура, которую ощущает человек, с поправкой на солнечный нагрев. Характеристика знойности погоды. Зависит от высоты солнца над горизонтом, облачности и скорости ветра. Ночью, в пасмурную погоду, а также при ветре 12 м/с и более поправка равна нулю.
P - Атмосферное давление - приведенное к уровню моря атмосферное давление.
Po - Атмосферное давление - измеренное на уровне метеостанции атмосферное давление.
Tmin - Минимальная температура - минимум температуры воздуха на высоте 2 м над землей.
Tmax - Максимальная температура - максимум температуры воздуха на высоте 2 м над землей.
R - Количество осадков - Количество выпавших осадков за период времени, мм. При наведении курсора мыши на число - период времени, за который выпало указанное количество осадков.
R24 - Количество осадков - Количество выпавших осадков за 24 часа, мм.
S - Снежный покров - Высота снежного покрова, см. При наведении курсора мыши на число - состояние снежного покрова и степень покрытия местности в баллах.